Location: Murphys Corner
(39.1062°N, 77.8244°W)
Time: 03:34:25
(UTC+00:00)

Envisat - Visible Passes

Search period start: 03 February 2023 00:00
Search period end: 13 February 2023 00:00
Orbit: 763 x 765 km, 98.2° (Epoch: 02 February)

Date Brightness Start Highest point End Pass type
(mag) Time Alt. Az. Time Alt. Az. Time Alt. Az.
04 Feb 5.3 10:09:44 10° N 10:09:53 11° N 10:09:53 11° N visible
05 Feb 5.5 09:32:15 10° N 09:32:33 12° N 09:32:33 12° N visible
07 Feb 5.2 09:57:27 10° N 09:58:05 13° N 09:58:05 13° N visible
08 Feb 5.4 09:20:08 10° NNE 09:20:46 14° NNE 09:20:46 14° NNE visible
09 Feb 5.8 08:43:23 10° NNE 08:43:26 10° NNE 08:43:26 10° NNE visible
09 Feb 5.0 10:22:56 10° NNW 10:23:38 13° NNW 10:23:38 13° NNW visible
10 Feb 5.0 09:45:13 10° N 09:46:18 16° N 09:46:18 16° N visible
11 Feb 5.3 09:08:04 10° NNE 09:08:59 15° NNE 09:08:59 15° NNE visible
11 Feb 5.1 10:49:02 10° NNW 10:49:11 10° NNW 10:49:11 10° NNW visible
12 Feb 5.9 08:31:32 10° NE 08:31:39 11° NE 08:31:39 11° NE visible
12 Feb 4.8 10:10:33 10° N 10:11:51 17° NNW 10:11:51 17° NNW visible
